Regional Weather Roundup
Issued by NWS Grand Forks, ND

Home | Current Version | Previous Version | Text Only | Print | Product List | Glossary Off
Versions: 1 2 3 4 5 6 7 8 9 10 11 12 13 14 15 16 17 18 19 20 21 22 23 24 25 26 27 28 29 30 31 32 33 34 35 36 37 38 39 40 41 42 43 44 45 46 47 48 49 50

000
ASUS43 KFGF 041010
RWRFGF
PRAIRIE TO PINES  WEATHER ROUNDUP
NATIONAL WEATHER SERVICE EASTERN NORTH DAKOTA/GRAND FORKS ND
500 AM CDT TUE AUG 04 2015

 **SATELLITE DATA USED TO AUGMENT SKY COVER AT AUTOMATED STATIONS**
 *****  WEATHER ACROSS EASTERN NORTH DAKOTA  *****

CITY           SKY/WX    TMP DP  RH WIND       PRES   REMARKS
GRAND FORKS    CLEAR     50  47  89 NW6       29.96R
GRAND FRKS AFB CLEAR     48  46  93 N7        29.96S
GRAND FRKS NWS   N/A     54 N/A N/A N2          N/A
DEVILS LAKE    CLEAR     52  45  76 CALM      29.97S
FARGO          CLEAR     53  47  79 SW3       29.95S
WAHPETON ARPT  SUNNY     50  46  87 CALM      29.95F
$$

 ***** WEATHER ACROSS CENTRAL AND WESTERN NORTH DAKOTA  *****

CITY           SKY/WX    TMP DP  RH WIND       PRES   REMARKS
BISMARCK       CLEAR     54  49  83 NE7       29.98S
MINOT          CLEAR     54  49  83 SW3       29.98S
JAMESTOWN      FOG       49  48  97 CALM      29.96S VSB 1/4
MINOT AFB      CLEAR     48  48  99 SW3       29.97S
GARRISON         N/A     54  51  90 CALM      29.97F
WILLISTON      PTCLDY    60  50  69 NE3       29.96S
DICKINSON      PTCLDY    53  48  83 E9        29.95F
HETTINGER      PTCLDY    59  50  72 E8        29.97S
$$

 *****  OTHER AIRPORT OBSERVATIONS IN OUR AREA  *****

CITY           SKY/WX    TMP DP  RH WIND       PRES   REMARKS
WALHALLA       FAIR      48  48 100 MISG      29.99S
GRAFTON AIRPOR FAIR      52  52 100 N7        29.97S
VALLEY CITY AR FAIR      50  50 100 NE3       29.97S
CANDO          NOT AVBL
CAVALIER APRT  FAIR      52  50  93 NW3       29.98S
GWINNER          N/A     54  52  94 W6        29.96F
SHEYENNE NWR     N/A     48  47  97 CALM      29.95S
ROLLA          FAIR      45  43  93 CALM      30.01F
 ***** THE ABOVE OBSERVATIONS ARE NON NWS ARE NOT QUALITY
       CONTROLLED AND MAY MIS-REPORT RAIN FOR SNOW...
$$

  *****  WEATHER ACROSS NORTHERN MINNESOTA  *****

CITY           SKY/WX    TMP DP  RH WIND       PRES   REMARKS
FLAG ISLAND    CLOUDY    59  52  77 NW10      29.94R
WARROAD        CLEAR     54  48  82 NW6       29.96S
ROSEAU         PTCLDY    54  48  82 CALM      29.96S
HALLOCK        CLEAR     48  46  93 CALM      29.97R
THF RVR FALLS  CLEAR     55  48  76 CALM      29.96S
BAUDETTE       CLEAR     51  49  92 W3        29.94R
WASKISH        CLEAR     55  52  88 NW5       29.95R
CROOKSTON      CLEAR     50  46  87 CALM      29.96S
STEPHEN NDAWN    N/A     48  46  93 N2          N/A
GREENBUSH NDAW   N/A     46  46 100 W1          N/A
$$
  *****  WEATHER ACROSS CENTRAL AND WEST MINNESOTA  *****

CITY           SKY/WX    TMP DP  RH WIND       PRES   REMARKS
FOSSTON        CLEAR     46  46 100 CALM      29.96S
BEMIDJI        CLEAR     46  42  87 W5        29.95S
PARK RAPIDS    CLEAR     49  45  86 CALM      29.95F
ELBOW LAKE     FAIR      56  55  94 CALM      29.95F
WADENA         CLEAR     46  45  93 CALM      29.95S
DETROIT LAKES  CLEAR     54  52  94 NE3       29.96S
MOORHEAD       CLEAR     50  46  87 CALM      29.96S
FERGUS FALLS   CLEAR     52  52 100 CALM      29.96S
MORRIS MN      CLEAR     52  48  87 CALM      29.95S
STAPLES        CLEAR     48  46  93 CALM      29.96S
$$
  *****  WEATHER ELSEWHERE ACROSS MINNESOTA  *****

CITY           SKY/WX    TMP DP  RH WIND       PRES   REMARKS
DULUTH         PTCLDY    54  49  83 NW6       29.92S
INTRNTL FALLS  CLOUDY    50  49  96 CALM      29.93R
ELY            MOCLDY    48  46  93 CALM      29.92R
CLOQUET        CLEAR     52  48  87 W6        29.93S
WHEATON        CLEAR     46  45  93 CALM      29.96F
BRAINERD       CLEAR     49  48  97 CALM      29.95F
HIBBING        CLEAR     47  45  93 CALM      29.93S
ALEXANDRIA     CLEAR     54  50  86 CALM      29.96F
SAINT CLOUD    CLEAR     50  49  96 NE3       29.94F
MINNEAPOLIS    CLEAR     60  54  80 CALM      29.94F
$$

  *****  WEATHER ACROSS SOUTH DAKOTA  *****

CITY           SKY/WX    TMP DP  RH WIND       PRES   REMARKS
SIOUX FALLS    CLOUDY    59  55  87 E6        29.98R
BROOKINGS      CLEAR     55  48  76 CALM      30.00R
WATERTOWN      CLEAR     53  48  83 S6        29.98R
HURON          MOCLDY    61  54  77 SE6       29.96R
SISSETON         N/A     48  46  93 CALM      29.94F
ABERDEEN       CLEAR     55  51  86 CALM      29.96S
MITCHELL       CLOUDY    63  59  87 SE7       29.96R
PIERRE         CLOUDY    66  57  72 S10       29.96R
MOBRIDGE       PTCLDY    62  57  83 E9        29.95R
RAPID CITY     MOCLDY    64  58  80 SE6       29.94R
$$

  *****  SOME WEATHER IN NEARBY STATES *****

CITY           SKY/WX    TMP DP  RH WIND       PRES   REMARKS
GLASGOW MT     CLEAR     66  47  50 E18       29.86F
GREAT FALLS MT CLOUDY    73  41  31 SW12      29.85R
CHEYENNE WY    CLOUDY    68  45  43 W21G32    30.07S
SCOTTSBLUFF NE PTCLDY    60  55  83 E6        29.93F
OMAHA NE       CLOUDY    71  61  70 S8        29.95R
DES MOINES IA  PTCLDY    68  59  73 CALM      29.96R
DAVENPORT IA   CLEAR     54  52  93 W3        29.96R
CHICAGO IL     CLEAR     63  55  75 W3        29.92S
EAU CLAIRE WI  CLEAR     55  51  86 MISG      29.93F
LA CROSSE WI   CLEAR     60  56  86 CALM      29.93S
$$

  *****  SOME NATIONAL WEATHER *****

CITY           SKY/WX    TMP DP  RH WIND       PRES   REMARKS
LA GUARDIA NY  CLOUDY    72  65  78 S7        29.84R
RALEIGH NC     MOCLDY    73  72  94 CALM      29.99S
ATLANTA GA     MOCLDY    76  65  68 CALM      29.98R
NEW ORLEANS LA PTCLDY    80  75  84 CALM      29.94S
OKLAHOMA CITY  CLOUDY    75  69  81 W5        29.95R
ALBUQUERQUE NM PTCLDY    67  48  50 SE6       30.15R
SALT LAKE CITY PTCLDY    61  54  77 SE6       30.08S
LOS ANGELES CA PTCLDY    68  63  84 SW3       29.87F
BOISE ID       LGT RAIN  72  52  49 N21G26    29.96F
SEATTLE WA     PTCLDY    60  55  83 SW3       29.99S
$$

*** WEATHER ACROSS MANITOBA...SASKATCHEWAN AND ONTARIO ***
                ***ONTARIO***

CITY           SKY/WX    TMP DP  RH WIND       PRES   REMARKS
GERALDTON      DRIZZLE   52  50  93 NW6       29.82R FOG
THUNDER BAY    MOCLDY    55  54  94 SW3       29.86S
SIOUX LOOKOUT  CLOUDY    50  46  87 N3        29.93R
TORONTO        MOCLDY    64  54  68 NW10      29.84R
BIG TROUT LK   CLOUDY    48  48 100 N8        29.93R
PICKLE LAKE    NOT AVBL
DRYDEN         CLOUDY    50  48  93 N7        29.94R
KENORA         PTCLDY    52  50  93 N6        29.97R
$$
                *** MANITOBA***

CITY           SKY/WX    TMP DP  RH WIND       PRES   REMARKS
BRANDON        CLEAR     50  48  93 NE7       30.01S
DAUPHIN        CLEAR     45  43  93 W6        30.01S
ISLAND LAKE    MOCLDY    52  50  93 N2        29.99R
PILOT MOUND      N/A     48  46  93 NE5         N/A
THE PAS        PTCLDY    46  45  93 CALM      30.01F
THOMPSON       LGT RAIN  54  52  94 NW3       29.99S
WINNIPEG       CLEAR     46  45  93 N5        30.00S
LYNN LAKE      CLOUDY    55  54  94 E3        30.04R
CHURCHILL      DRIZZLE   46  45  93 N10       30.01R FOG
GILLAM         DRIZZLE   52  50  93 N10       29.97S
$$
                ***SASKATCHEWAN***

CITY           SKY/WX    TMP DP  RH WIND       PRES   REMARKS
ESTEVAN        PTCLDY    50  48  93 SE5       29.99R
KINDERSLEY     NOT AVBL
LLOYDMINSTER   CLOUDY    63  54  72 SE10G17   29.87R
PRINCE ALBERT  PTCLDY    54  54 100 E7        29.96S
REGINA         PTCLDY    57  48  72 SE10      29.98S
YORKTON        CLEAR     46  43  87 E3        30.01S
N. BATTLEFORD  MOCLDY    61  54  77 SE9       29.94S
LA RONGE       MOCLDY    54  50  87 VRB2      30.00R
SASKATOON      PTCLDY    63  52  67 SE8       29.95F
SWIFT CURRENT  CLEAR     59  52  77 SE10      29.90S
$$
NOTE: THESE ARE AUTOMATED STATIONS WITH LIMITED QUALITY CONTROL
      "FAIR" INDICATES FEW OR NO CLOUDS BELOW 12,000 FEET WITH NO
      SIGNIFICANT WEATHER AND/OR OBSTRUCTIONS TO VISIBILITY.
      SKY/WX - SKY CONDITION AND SIGNIFICANT WEATHER.
      TMP - AIR TEMPERATURE.    DP   - DEWPOINT TEMPERATURE.
      RH  - RELATIVE HUMIDITY.  PRES - PRESSURE.
      HX  - HEAT INDEX.         WCI  - WIND CHILL INDEX.
$


USA.gov is the U.S. government's official web portal to all federal, state and local government web resources and services.